Time,TemperatureF,DewpointF,PressureIn,WindDirection,WindDirectionDegrees,WindSpeedMPH,WindSpeedGustMPH,Humidity,HourlyPrecipIn,Conditions,Clouds,dailyrainin,SolarRadiationWatts/m^2,SoftwareType,DateUTC
2013-08-24 00:04:00,54.0,52.0,-100.00,SE,128,1.0,3.0,93,0.00,,,0.00,0.000000,,2013-08-24 04:04:00,
2013-08-24 00:44:00,52.0,51.0,-100.00,NE,54,2.0,2.0,96,0.00,,,0.00,0.000000,,2013-08-24 04:44:00,
2013-08-24 00:54:00,52.0,51.0,-100.00,NE,54,2.0,2.0,96,0.00,,,0.00,0.000000,,2013-08-24 04:54:00,
2013-08-24 01:03:00,52.0,51.0,-100.00,NE,54,2.0,2.0,96,0.00,,,0.00,0.000000,,2013-08-24 05:03:00,
2013-08-24 01:13:00,52.0,51.0,-100.00,NE,54,2.0,2.0,96,0.00,,,0.00,0.000000,,2013-08-24 05:13:00,
2013-08-24 01:43:00,51.0,50.0,-100.00,NNE,33,0.0,2.0,98,0.00,,,0.00,0.000000,,2013-08-24 05:43:00,
2013-08-24 01:53:00,51.0,50.0,-100.00,NNE,33,0.0,2.0,98,0.00,,,0.00,0.000000,,2013-08-24 05:53:00,
2013-08-24 02:02:00,51.0,50.0,-100.00,NNE,33,0.0,2.0,98,0.00,,,0.00,0.000000,,2013-08-24 06:02:00,
2013-08-24 02:12:00,51.0,50.0,-100.00,NNE,33,0.0,2.0,98,0.00,,,0.00,0.000000,,2013-08-24 06:12:00,
2013-08-24 02:42:00,49.0,48.0,-100.00,North,10,1.0,3.0,98,0.00,,,0.00,0.000000,,2013-08-24 06:42:00,
2013-08-24 02:52:00,49.0,48.0,-100.00,North,10,1.0,3.0,98,0.00,,,0.00,0.000000,,2013-08-24 06:52:00,
2013-08-24 03:02:00,49.0,48.0,-100.00,North,10,1.0,3.0,98,0.00,,,0.00,0.000000,,2013-08-24 07:02:00,
2013-08-24 03:12:00,49.0,48.0,-100.00,North,10,1.0,3.0,98,0.00,,,0.00,0.000000,,2013-08-24 07:12:00,
2013-08-24 03:43:00,48.0,47.0,-100.00,NNW,348,2.0,3.0,98,0.00,,,0.00,0.000000,,2013-08-24 07:43:00,
2013-08-24 03:53:00,48.0,47.0,-100.00,NNW,348,2.0,3.0,98,0.00,,,0.00,0.000000,,2013-08-24 07:53:00,
2013-08-24 04:02:00,48.0,47.0,-100.00,NNW,348,2.0,3.0,98,0.00,,,0.00,0.000000,,2013-08-24 08:02:00,
2013-08-24 04:12:00,48.0,47.0,-100.00,NNW,348,2.0,3.0,98,0.00,,,0.00,0.000000,,2013-08-24 08:12:00,
2013-08-24 04:42:00,47.0,47.0,-100.00,ENE,68,3.0,3.0,99,0.00,,,0.00,0.000000,,2013-08-24 08:42:00,
2013-08-24 04:52:00,47.0,47.0,-100.00,ENE,68,3.0,3.0,99,0.00,,,0.00,0.000000,,2013-08-24 08:52:00,
2013-08-24 05:01:00,47.0,47.0,-100.00,ENE,68,3.0,3.0,99,0.00,,,0.00,0.000000,,2013-08-24 09:01:00,
2013-08-24 05:11:00,47.0,47.0,-100.00,ENE,68,3.0,3.0,99,0.00,,,0.00,0.000000,,2013-08-24 09:11:00,
2013-08-24 06:42:00,45.0,45.0,-100.00,ESE,105,0.0,5.0,99,0.00,,,0.00,0.000000,,2013-08-24 10:42:00,
2013-08-24 06:53:00,45.0,45.0,-100.00,ESE,105,0.0,5.0,99,0.00,,,0.00,0.000000,,2013-08-24 10:53:00,
2013-08-24 07:03:00,45.0,45.0,-100.00,ESE,105,0.0,5.0,99,0.00,,,0.00,0.000000,,2013-08-24 11:03:00,
2013-08-24 07:12:00,45.0,45.0,-100.00,ESE,105,0.0,5.0,99,0.00,,,0.00,0.000000,,2013-08-24 11:12:00,
2013-08-24 07:42:00,47.0,47.0,-100.00,East,91,3.0,4.0,99,0.00,,,0.00,5.000000,,2013-08-24 11:42:00,
2013-08-24 07:52:00,47.0,47.0,-100.00,East,91,3.0,4.0,99,0.00,,,0.00,5.000000,,2013-08-24 11:52:00,
2013-08-24 08:02:00,47.0,47.0,-100.00,East,91,3.0,4.0,99,0.00,,,0.00,5.000000,,2013-08-24 12:02:00,
2013-08-24 08:12:00,47.0,47.0,-100.00,East,91,3.0,4.0,99,0.00,,,0.00,5.000000,,2013-08-24 12:12:00,
2013-08-24 08:42:00,54.0,53.0,-100.00,WNW,298,1.0,3.0,98,0.00,,,0.00,114.000000,,2013-08-24 12:42:00,
2013-08-24 08:52:00,54.0,53.0,-100.00,WNW,298,1.0,3.0,98,0.00,,,0.00,114.000000,,2013-08-24 12:52:00,
2013-08-24 09:02:00,54.0,53.0,-100.00,WNW,298,1.0,3.0,98,0.00,,,0.00,114.000000,,2013-08-24 13:02:00,
2013-08-24 09:11:00,54.0,53.0,-100.00,WNW,298,1.0,3.0,98,0.00,,,0.00,114.000000,,2013-08-24 13:11:00,
2013-08-24 09:42:00,62.0,57.0,-100.00,SE,125,7.0,9.0,83,0.00,,,0.00,311.000000,,2013-08-24 13:42:00,
2013-08-24 09:52:00,62.0,57.0,-100.00,SE,125,7.0,9.0,83,0.00,,,0.00,311.000000,,2013-08-24 13:52:00,
2013-08-24 10:02:00,62.0,57.0,-100.00,SE,125,7.0,9.0,83,0.00,,,0.00,311.000000,,2013-08-24 14:02:00,
2013-08-24 10:11:00,62.0,57.0,-100.00,SE,125,7.0,9.0,83,0.00,,,0.00,311.000000,,2013-08-24 14:11:00,
2013-08-24 10:42:00,68.0,57.0,-100.00,South,171,6.0,10.0,69,0.00,,,0.00,519.000000,,2013-08-24 14:42:00,
2013-08-24 10:52:00,68.0,57.0,-100.00,South,171,6.0,10.0,69,0.00,,,0.00,519.000000,,2013-08-24 14:52:00,
2013-08-24 11:01:00,68.0,57.0,-100.00,South,171,6.0,10.0,69,0.00,,,0.00,519.000000,,2013-08-24 15:01:00,
2013-08-24 11:12:00,68.0,57.0,-100.00,South,171,6.0,10.0,69,0.00,,,0.00,519.000000,,2013-08-24 15:12:00,
2013-08-24 11:14:00,71.0,58.0,-100.00,SSE,152,6.0,9.0,64,0.00,,,0.00,694.000000,,2013-08-24 15:14:00,
2013-08-24 11:45:00,71.0,58.0,-100.00,SSE,152,6.0,9.0,64,0.00,,,0.00,694.000000,,2013-08-24 15:45:00,
2013-08-24 11:54:00,71.0,58.0,-100.00,SSE,152,6.0,9.0,64,0.00,,,0.00,694.000000,,2013-08-24 15:54:00,
2013-08-24 12:04:00,71.0,58.0,-100.00,SSE,152,6.0,9.0,64,0.00,,,0.00,694.000000,,2013-08-24 16:04:00,
2013-08-24 12:42:00,74.0,60.0,-100.00,SSE,151,7.0,11.0,61,0.00,,,0.00,852.000000,,2013-08-24 16:42:00,
2013-08-24 12:53:00,74.0,60.0,-100.00,SSE,151,7.0,11.0,61,0.00,,,0.00,852.000000,,2013-08-24 16:53:00,
2013-08-24 13:02:00,74.0,60.0,-100.00,SSE,151,7.0,11.0,61,0.00,,,0.00,852.000000,,2013-08-24 17:02:00,
2013-08-24 13:12:00,74.0,60.0,-100.00,SSE,151,7.0,11.0,61,0.00,,,0.00,852.000000,,2013-08-24 17:12:00,
2013-08-24 13:42:00,76.0,59.0,-100.00,South,185,7.0,11.0,55,0.00,,,0.00,948.000000,,2013-08-24 17:42:00,
2013-08-24 13:52:00,76.0,59.0,-100.00,South,185,7.0,11.0,55,0.00,,,0.00,948.000000,,2013-08-24 17:52:00,
2013-08-24 14:03:00,76.0,59.0,-100.00,South,185,7.0,11.0,55,0.00,,,0.00,948.000000,,2013-08-24 18:03:00,
2013-08-24 14:13:00,76.0,59.0,-100.00,South,185,7.0,11.0,55,0.00,,,0.00,948.000000,,2013-08-24 18:13:00,
2013-08-24 14:42:00,78.0,61.0,-100.00,SSW,207,6.0,12.0,56,0.00,,,0.00,982.000000,,2013-08-24 18:42:00,
2013-08-24 14:53:00,78.0,61.0,-100.00,SSW,207,6.0,12.0,56,0.00,,,0.00,982.000000,,2013-08-24 18:53:00,
2013-08-24 15:01:00,78.0,61.0,-100.00,SSW,207,6.0,12.0,56,0.00,,,0.00,982.000000,,2013-08-24 19:01:00,
2013-08-24 15:12:00,78.0,61.0,-100.00,SSW,207,6.0,12.0,56,0.00,,,0.00,982.000000,,2013-08-24 19:12:00,
2013-08-24 15:42:00,79.0,56.0,-100.00,SSW,210,9.0,14.0,46,0.00,,,0.00,861.000000,,2013-08-24 19:42:00,
2013-08-24 15:52:00,79.0,56.0,-100.00,SSW,210,9.0,14.0,46,0.00,,,0.00,861.000000,,2013-08-24 19:52:00,
2013-08-24 16:02:00,79.0,56.0,-100.00,SSW,210,9.0,14.0,46,0.00,,,0.00,861.000000,,2013-08-24 20:02:00,
2013-08-24 16:12:00,79.0,56.0,-100.00,SSW,210,9.0,14.0,46,0.00,,,0.00,861.000000,,2013-08-24 20:12:00,
2013-08-24 16:42:00,79.0,55.0,-100.00,SSW,210,9.0,16.0,44,0.00,,,0.00,832.000000,,2013-08-24 20:42:00,
2013-08-24 16:53:00,79.0,55.0,-100.00,SSW,210,9.0,16.0,44,0.00,,,0.00,832.000000,,2013-08-24 20:53:00,
2013-08-24 17:02:00,79.0,55.0,-100.00,SSW,210,9.0,16.0,44,0.00,,,0.00,832.000000,,2013-08-24 21:02:00,
2013-08-24 17:11:00,79.0,55.0,-100.00,SSW,210,9.0,16.0,44,0.00,,,0.00,832.000000,,2013-08-24 21:11:00,
2013-08-24 18:43:00,77.0,55.0,-100.00,SSW,204,7.0,14.0,47,-99.99,,,0.00,472.000000,,2013-08-24 22:43:00,
2013-08-24 18:53:00,77.0,55.0,-100.00,SSW,204,7.0,14.0,47,-99.99,,,0.00,472.000000,,2013-08-24 22:53:00,
2013-08-24 19:03:00,77.0,55.0,-100.00,SSW,204,7.0,14.0,47,-99.99,,,0.00,472.000000,,2013-08-24 23:03:00,
2013-08-24 19:12:00,77.0,55.0,-100.00,SSW,204,7.0,14.0,47,-99.99,,,0.00,472.000000,,2013-08-24 23:12:00,
2013-08-24 19:43:00,73.0,61.0,-100.00,SSE,168,5.0,9.0,65,0.00,,,0.00,238.000000,,2013-08-24 23:43:00,
2013-08-24 19:53:00,73.0,61.0,-100.00,SSE,168,5.0,9.0,65,0.00,,,0.00,238.000000,,2013-08-24 23:53:00,
2013-08-24 20:02:00,73.0,61.0,-100.00,SSE,168,5.0,9.0,65,0.00,,,0.00,238.000000,,2013-08-25 00:02:00,
2013-08-24 20:12:00,73.0,61.0,-100.00,SSE,168,5.0,9.0,65,0.00,,,0.00,238.000000,,2013-08-25 00:12:00,
2013-08-24 20:42:00,67.0,60.0,-100.00,SSE,149,8.0,12.0,78,0.00,,,0.00,70.000000,,2013-08-25 00:42:00,
2013-08-24 20:52:00,67.0,60.0,-100.00,SSE,149,8.0,12.0,78,0.00,,,0.00,70.000000,,2013-08-25 00:52:00,
2013-08-24 21:01:00,67.0,60.0,-100.00,SSE,149,8.0,12.0,78,0.00,,,0.00,70.000000,,2013-08-25 01:01:00,
2013-08-24 21:11:00,67.0,60.0,-100.00,SSE,149,8.0,12.0,78,0.00,,,0.00,70.000000,,2013-08-25 01:11:00,
2013-08-24 21:43:00,62.0,58.0,-100.00,SE,132,6.0,10.0,86,0.00,,,0.00,5.000000,,2013-08-25 01:43:00,
2013-08-24 21:52:00,62.0,58.0,-100.00,SE,132,6.0,10.0,86,0.00,,,0.00,5.000000,,2013-08-25 01:52:00,
2013-08-24 22:02:00,62.0,58.0,-100.00,SE,132,6.0,10.0,86,0.00,,,0.00,5.000000,,2013-08-25 02:02:00,
2013-08-24 22:12:00,62.0,58.0,-100.00,SE,132,6.0,10.0,86,0.00,,,0.00,5.000000,,2013-08-25 02:12:00,
2013-08-24 22:42:00,62.0,58.0,-100.00,SE,130,6.0,7.0,88,0.00,,,0.00,0.000000,,2013-08-25 02:42:00,
2013-08-24 22:52:00,62.0,58.0,-100.00,SE,130,6.0,7.0,88,0.00,,,0.00,0.000000,,2013-08-25 02:52:00,
2013-08-24 23:02:00,62.0,58.0,-100.00,SE,130,6.0,7.0,88,0.00,,,0.00,0.000000,,2013-08-25 03:02:00,
2013-08-24 23:11:00,62.0,58.0,-100.00,SE,130,6.0,7.0,88,0.00,,,0.00,0.000000,,2013-08-25 03:11:00,
2013-08-24 23:14:00,58.0,57.0,-100.00,SSE,151,4.0,7.0,96,0.00,,,0.00,0.000000,,2013-08-25 03:14:00,
2013-08-24 23:44:00,58.0,57.0,-100.00,SSE,151,4.0,7.0,96,0.00,,,0.00,0.000000,,2013-08-25 03:44:00,
2013-08-24 23:54:00,58.0,57.0,-100.00,SSE,151,4.0,7.0,96,0.00,,,0.00,0.000000,,2013-08-25 03:54:00,